Wind_Speed
25 26 28 27 27 29 30 30 31 30 30 30 30 31 32 33 34 35 35 34 30 27 22 20 19 18 21 23 25 26 27 26 26 27 28 29 30 31 31 30 30 30 30 29
25 26 30 29 29 32 33 32 32 31 30 30 30 30 30 31 31 31 30 29 25 22 20 17 16 18 19 20 21 23 24 24 25 26 27 28 28 29 28 28 28 29 29 28
24 25 29 28 28 31 32 31 30 29 29 29 29 29 29 28 27 27 26 25 22 20 18 17 16 15 16 18 20 21 22 23 24 25 26 27 27 27 27 27 27 27 27 26
25 25 26 24 26 29 30 29 29 29 29 29 29 28 27 26 25 24 23 21 19 17 16 16 15 15 15 17 18 20 20 21 22 23 24 25 25 24 25 24 24 24 23 23
25 25 24 20 24 27 29 27 28 30 31 31 29 27 26 24 22 21 20 19 17 15 14 14 14 14 14 15 16 17 18 18 19 20 21 21 21 21 21 20 20 19 18 18
26 28 26 22 24 26 27 25 26 28 29 30 29 27 25 23 21 19 18 16 15 14 13 12 12 12 12 12 13 14 14 15 16 17 17 17 17 16 16 15 15 15 16 17
28 29 27 26 26 26 26 26 27 27 28 28 29 27 24 22 19 17 16 15 14 13 12 11 10 10 10 10 11 12 12 12 13 13 13 13 12 12 12 12 13 13 14 14
28 28 27 28 28 27 27 27 27 27 27 28 28 27 25 22 19 17 14 13 13 12 11 10 9 9 9 9 9 10 9 9 10 10 10 10 10 10 11 11 11 12 12 12
31 29 29 29 30 30 29 28 28 28 27 28 27 27 25 23 21 18 15 13 13 12 11 10 9 9 8 8 8 7 7 7 8 8 9 10 10 10 11 11 11 11 11 11
32 30 31 31 32 32 32 31 30 29 28 27 27 27 27 25 22 19 17 15 14 13 12 11 10 9 9 8 7 7 6 6 6 7 8 9 10 10 11 12 12 12 12 13
33 31 32 31 32 33 33 33 31 30 29 28 27 27 27 26 25 23 20 18 17 15 13 12 12 11 9 9 8 7 7 7 7 7 8 9 10 11 12 12 13 13 13 13
36 34 34 32 33 33 34 33 32 30 29 28 27 27 28 27 27 26 23 21 20 19 17 16 15 13 12 11 10 9 9 9 9 9 10 10 11 12 12 13 13 14 14 14
40 38 36 34 34 35 35 34 32 31 29 27 26 26 26 27 27 27 26 24 23 22 21 20 19 17 16 15 13 13 12 12 12 12 12 13 13 14 14 14 14 15 15 15
41 40 38 36 35 35 35 35 33 31 29 27 25 25 25 26 27 27 26 26 26 25 25 25 23 22 21 19 18 17 16 15 15 15 15 15 15 15 16 16 16 15 15 15
43 42 40 38 36 35 36 35 34 32 30 28 26 25 25 25 26 27 27 27 27 26 26 26 27 26 24 23 22 21 20 19 18 17 17 17 17 17 17 17 16 16 15 15
42 41 40 40 38 37 36 36 35 33 31 29 27 26 25 25 25 26 27 27 26 26 25 25 26 27 26 26 25 24 23 22 21 20 19 18 18 18 18 18 18 17 16 15
43 42 41 40 40 39 39 39 38 37 34 32 31 29 27 27 27 27 27 27 26 25 24 24 24 24 25 26 26 26 26 25 24 23 22 21 20 20 20 20 19 18 17 16
45 45 44 43 41 41 40 41 41 40 39 36 34 33 31 29 28 27 26 27 26 25 24 24 23 22 22 23 24 25 26 26 26 25 25 23 22 22 21 21 20 19 18 17
48 48 48 47 46 45 44 43 42 43 43 41 39 37 35 32 31 30 29 29 27 25 25 26 25 23 22 21 21 22 23 24 25 26 26 25 24 23 23 22 21 20 19 18
55 54 54 54 53 52 49 46 44 44 44 44 43 42 39 36 34 32 31 30 27 26 27 29 28 26 24 23 23 22 22 22 23 25 26 26 25 25 24 23 22 21 20 19
62 63 63 62 61 60 57 52 48 46 45 45 44 44 42 39 37 35 33 30 28 27 28 30 30 29 28 27 25 23 22 22 22 22 24 25 25 25 24 23 22 21 21 20
67 69 70 70 70 69 67 65 61 57 53 50 47 46 46 44 41 38 36 33 30 29 29 29 30 30 30 30 28 26 24 23 22 22 22 23 23 23 23 23 22 22 21 21
63 65 66 68 69 71 72 71 69 67 63 60 57 52 48 47 44 41 39 37 34 32 30 29 30 31 32 32 30 28 26 25 24 22 22 22 22 22 22 22 22 22 22 22
56 55 55 56 58 61 64 67 69 69 67 65 63 60 55 50 46 44 42 40 38 36 33 31 31 31 32 33 32 30 28 27 25 23 22 21 21 21 22 22 22 22 22 22
49 48 48 47 47 48 50 53 55 58 60 61 61 59 58 54 50 47 46 44 41 39 36 34 34 34 34 33 33 31 29 28 26 24 23 21 21 21 21 21 22 22 22 21
41 39 37 35 34 34 34 36 38 41 43 46 49 50 50 50 49 46 45 43 41 39 37 36 35 36 35 34 33 31 30 28 27 25 23 21 20 20 20 21 21 21 21 21
32 31 30 29 29 28 28 27 26 27 29 31 34 37 39 41 42 42 42 41 39 39 38 37 36 35 35 35 34 32 30 29 27 25 23 21 20 19 19 20 21 21 21 21
Wind_Direction
288 286 285 286 288 288 288 289 291 294 296 300 304 310 315 319 322 323 322 318 314 306 296 282 268 255 248 245 244 242 242 242 245 248 252 256 259 262 265 267 270 272 274 275
292 288 284 286 286 285 286 287 289 290 293 296 302 307 313 319 323 324 325 322 318 311 299 288 276 263 254 247 245 245 245 246 249 252 255 259 262 264 266 268 271 273 274 274
303 297 295 297 291 285 284 286 287 288 289 292 298 304 310 317 322 324 325 323 318 312 303 294 288 276 265 256 252 251 251 252 254 256 258 261 263 265 267 269 271 272 273 275
308 305 306 311 299 293 288 285 285 285 286 289 294 300 305 312 318 322 324 322 318 312 306 297 291 288 278 269 263 260 258 259 260 261 262 263 264 265 268 270 271 273 275 278
314 313 316 315 303 298 295 293 285 282 282 285 288 293 299 305 311 317 322 323 319 312 308 304 299 293 285 278 271 268 265 264 264 263 264 265 264 266 268 269 272 275 278 280
318 317 322 321 307 304 302 298 286 284 285 283 284 285 289 295 303 310 317 320 320 316 308 306 303 297 292 283 279 275 271 269 266 263 263 265 265 266 265 269 272 275 278 282
316 316 322 318 313 312 307 304 293 287 283 282 280 281 282 285 293 301 309 314 318 318 317 315 313 309 301 293 287 281 276 271 266 261 260 260 259 260 261 266 272 277 282 285
311 314 317 313 313 313 310 305 300 292 285 282 279 276 275 277 282 289 297 304 311 316 317 316 314 313 309 302 295 288 279 272 263 257 253 251 253 256 261 267 274 281 285 289
310 313 311 310 310 311 310 309 306 298 292 287 279 274 273 271 273 278 283 289 298 305 311 314 312 311 311 308 305 298 285 274 264 257 252 252 254 257 263 269 275 279 284 290
307 310 307 306 307 307 307 307 308 303 297 290 281 274 270 269 267 270 272 276 284 292 297 302 307 308 307 308 307 303 295 283 274 265 258 255 256 261 266 271 277 281 286 290
307 305 301 302 301 301 302 304 304 302 297 292 284 275 270 268 265 265 266 267 271 275 282 287 290 293 294 294 293 291 288 284 278 272 268 265 267 269 272 275 279 284 288 291
305 301 298 297 294 294 296 297 299 298 297 292 285 278 270 266 264 262 261 262 264 267 270 274 275 277 279 280 280 281 282 280 279 277 276 275 275 276 278 281 284 287 290 293
303 301 298 295 292 291 291 293 293 294 293 291 285 281 272 265 264 261 259 259 262 264 265 266 266 267 268 269 272 273 274 275 276 277 278 279 280 281 282 283 285 289 291 295
301 299 297 294 290 288 289 289 290 290 289 286 284 280 272 266 263 261 260 260 262 263 264 264 263 263 262 263 264 266 268 270 271 273 275 277 279 281 282 283 285 288 291 294
298 296 294 292 287 285 285 285 285 285 283 281 279 276 272 267 264 263 262 262 263 265 265 264 263 261 260 259 260 261 262 264 266 268 271 274 277 279 281 282 284 287 290 293
295 292 290 289 287 284 282 281 280 279 277 275 274 272 269 266 264 265 264 264 264 265 265 265 264 263 261 259 258 258 259 260 261 264 267 270 273 275 278 280 282 284 287 290
294 291 288 284 283 281 279 277 276 274 271 269 268 267 266 265 263 263 263 263 264 267 267 266 265 264 262 261 260 258 257 257 258 260 263 266 269 272 274 276 278 281 285 289
294 292 289 285 283 279 278 275 273 271 267 264 263 262 261 259 257 257 259 261 263 266 267 267 267 266 265 264 263 261 259 257 257 258 259 262 265 268 270 272 274 277 281 286
288 287 284 281 279 277 275 273 271 268 263 260 259 258 257 256 255 253 254 258 261 262 264 265 265 265 266 266 267 266 265 262 259 257 258 259 262 264 265 267 270 272 277 282
282 281 280 278 275 272 271 267 263 260 256 253 253 254 254 252 252 251 252 254 257 258 259 262 263 264 266 267 268 269 270 269 266 262 260 259 260 260 261 263 266 269 273 277
278 277 276 275 272 270 267 264 261 256 251 247 247 250 251 251 249 248 248 250 252 254 255 257 261 264 265 266 267 268 270 271 271 268 265 261 259 257 257 259 262 265 268 272
279 278 276 274 272 270 268 266 262 260 254 249 246 247 247 247 248 248 247 248 250 252 254 256 258 261 262 264 265 265 266 270 272 272 269 264 259 255 254 255 258 261 265 269
288 286 283 280 277 273 271 269 266 262 258 254 251 248 247 246 246 247 249 249 250 251 253 255 257 258 258 260 262 263 263 267 271 272 270 265 260 255 253 254 256 258 262 267
297 293 290 287 283 279 275 273 271 267 262 258 256 253 251 249 247 248 249 249 250 252 254 254 255 255 256 258 259 260 261 264 266 269 270 266 261 257 255 256 258 259 263 268
304 301 299 296 290 285 281 276 273 271 268 264 260 258 255 253 251 251 250 251 252 253 252 253 252 252 253 255 257 258 259 259 260 263 266 265 262 258 257 257 259 262 267 271
311 310 309 307 304 300 293 284 278 274 270 266 262 259 256 254 252 250 249 250 251 251 250 250 250 250 251 253 253 253 253 252 254 257 260 262 261 258 258 258 259 263 268 271
320 320 320 319 316 312 307 301 293 282 272 265 259 256 253 250 249 248 247 247 248 248 246 246 247 248 248 249 248 247 246 246 247 251 255 259 259 259 259 259 260 263 266 270
Height
5798 5795 5792 5791 5790 5786 5784 5781 5778 5777 5773 5770 5767 5763 5759 5753 5747 5741 5734 5728 5722 5717 5712 5710 5708 5709 5710 5712 5714 5717 5720 5722 5725 5728 5730 5732 5734 5735 5736 5737 5738 5738 5738 5737
5791 5788 5784 5784 5783 5779 5775 5773 5770 5768 5766 5762 5759 5756 5752 5747 5742 5736 5730 5724 5718 5714 5710 5708 5706 5706 5706 5708 5710 5712 5714 5716 5718 5721 5723 5724 5726 5727 5728 5729 5729 5730 5730 5729
5783 5781 5777 5776 5774 5769 5767 5764 5762 5760 5758 5755 5753 5749 5746 5742 5737 5732 5726 5721 5716 5712 5709 5707 5705 5704 5704 5704 5706 5707 5709 5710 5712 5714 5715 5717 5718 5720 5721 5721 5722 5722 5722 5722
5777 5774 5770 5772 5764 5761 5757 5756 5754 5752 5750 5747 5746 5743 5740 5737 5733 5728 5724 5719 5714 5710 5707 5705 5703 5702 5701 5701 5702 5702 5704 5705 5706 5708 5709 5710 5712 5713 5714 5714 5715 5715 5715 5715
5771 5767 5765 5764 5758 5753 5750 5749 5747 5743 5742 5740 5738 5737 5734 5731 5728 5725 5721 5716 5712 5708 5705 5703 5701 5699 5698 5698 5698 5698 5699 5700 5701 5702 5704 5705 5706 5707 5707 5708 5709 5709 5709 5709
5766 5761 5759 5759 5753 5747 5745 5743 5740 5736 5735 5733 5731 5730 5729 5726 5724 5720 5717 5714 5710 5706 5703 5701 5699 5697 5696 5695 5695 5695 5695 5696 5697 5698 5699 5700 5701 5702 5702 5703 5704 5704 5704 5703
5761 5756 5753 5751 5746 5742 5739 5737 5733 5730 5727 5725 5723 5722 5722 5720 5718 5716 5713 5710 5707 5704 5701 5698 5696 5695 5693 5693 5692 5692 5692 5692 5693 5693 5694 5695 5697 5697 5698 5699 5699 5699 5699 5698
5756 5752 5750 5744 5740 5737 5734 5729 5725 5722 5720 5717 5716 5714 5713 5712 5712 5710 5709 5706 5704 5701 5698 5696 5694 5693 5691 5691 5690 5689 5689 5689 5690 5690 5691 5692 5693 5694 5695 5695 5695 5695 5695 5694
5750 5747 5742 5737 5733 5730 5726 5722 5718 5715 5712 5710 5708 5706 5705 5705 5705 5704 5703 5702 5700 5698 5696 5694 5692 5691 5690 5689 5688 5687 5687 5687 5687 5687 5688 5689 5690 5691 5691 5691 5692 5691 5691 5690
5742 5739 5734 5730 5726 5722 5718 5714 5711 5707 5704 5701 5699 5698 5697 5697 5697 5697 5697 5696 5695 5694 5692 5691 5690 5688 5687 5686 5686 5685 5685 5685 5685 5685 5686 5686 5687 5687 5688 5688 5688 5688 5687 5686
5734 5731 5726 5723 5718 5713 5709 5706 5703 5700 5696 5693 5691 5690 5689 5689 5689 5689 5690 5690 5689 5689 5688 5687 5686 5685 5685 5684 5684 5683 5683 5683 5683 5683 5683 5684 5684 5684 5684 5684 5684 5684 5683 5682
5726 5722 5717 5714 5709 5704 5700 5697 5694 5691 5688 5685 5683 5681 5680 5680 5680 5681 5682 5682 5682 5682 5682 5682 5682 5681 5681 5681 5681 5680 5680 5680 5680 5680 5680 5680 5680 5680 5680 5680 5679 5679 5678 5677
5716 5711 5707 5704 5700 5695 5691 5688 5685 5682 5680 5677 5675 5673 5672 5671 5671 5672 5673 5674 5675 5675 5676 5676 5676 5676 5676 5676 5676 5676 5676 5676 5676 5677 5677 5677 5676 5676 5676 5675 5675 5674 5673 5672
5705 5700 5697 5693 5689 5685 5681 5678 5675 5673 5671 5669 5667 5665 5664 5663 5663 5664 5664 5665 5666 5667 5668 5668 5669 5669 5670 5670 5670 5671 5671 5671 5671 5671 5672 5672 5671 5671 5670 5670 5669 5668 5668 5666
5693 5688 5685 5681 5678 5674 5670 5667 5665 5663 5661 5660 5658 5657 5656 5656 5655 5655 5656 5657 5658 5658 5659 5659 5660 5661 5662 5662 5663 5664 5664 5665 5665 5665 5666 5666 5666 5665 5665 5664 5663 5663 5662 5661
5681 5676 5672 5668 5665 5662 5659 5656 5654 5652 5651 5650 5649 5648 5648 5647 5647 5647 5647 5648 5649 5649 5650 5650 5651 5652 5653 5654 5655 5655 5656 5657 5658 5658 5659 5659 5659 5659 5658 5658 5657 5657 5656 5656
5667 5663 5659 5655 5652 5649 5646 5644 5642 5640 5639 5639 5639 5638 5638 5638 5639 5639 5639 5639 5640 5641 5641 5642 5642 5643 5644 5645 5646 5647 5647 5648 5649 5650 5651 5652 5652 5652 5652 5651 5651 5650 5650 5649
5651 5647 5643 5640 5637 5635 5632 5630 5628 5626 5626 5626 5626 5627 5627 5628 5629 5630 5630 5630 5631 5632 5633 5633 5634 5635 5635 5636 5637 5638 5638 5639 5640 5641 5642 5643 5644 5645 5645 5644 5644 5643 5643 5642
5636 5631 5627 5624 5621 5618 5616 5615 5613 5612 5611 5611 5612 5614 5615 5616 5618 5619 5620 5620 5622 5623 5624 5624 5625 5626 5627 5628 5629 5629 5630 5630 5631 5632 5633 5634 5635 5636 5637 5637 5637 5636 5636 5636
5619 5614 5610 5607 5603 5601 5599 5597 5596 5596 5595 5595 5596 5599 5601 5603 5605 5607 5608 5610 5612 5614 5614 5614 5615 5617 5618 5619 5620 5621 5622 5622 5622 5623 5624 5625 5626 5627 5628 5628 5629 5629 5629 5629
5599 5594 5590 5586 5582 5580 5578 5578 5578 5579 5578 5579 5581 5583 5586 5588 5591 5594 5596 5599 5602 5603 5604 5604 5605 5607 5609 5610 5611 5613 5614 5614 5614 5614 5615 5616 5617 5618 5619 5620 5621 5621 5622 5622
5575 5570 5565 5561 5557 5555 5554 5554 5555 5557 5560 5561 5564 5567 5570 5573 5576 5580 5583 5587 5590 5591 5593 5594 5596 5597 5599 5600 5602 5604 5605 5606 5606 5606 5606 5607 5608 5609 5611 5612 5613 5614 5614 5615
5551 5545 5540 5535 5531 5528 5527 5527 5528 5531 5535 5539 5544 5548 5553 5557 5561 5565 5570 5574 5576 5579 5582 5584 5586 5587 5589 5590 5592 5594 5596 5597 5598 5598 5598 5599 5600 5601 5602 5604 5605 5606 5607 5607
5528 5522 5517 5512 5507 5504 5502 5501 5501 5504 5509 5514 5520 5527 5533 5539 5545 5550 5555 5559 5563 5566 5569 5573 5575 5577 5578 5579 5582 5584 5587 5589 5590 5591 5591 5591 5592 5593 5594 5596 5597 5598 5599 5600
5510 5503 5498 5492 5487 5484 5482 5480 5480 5482 5486 5491 5498 5505 5512 5520 5527 5534 5539 5544 5549 5552 5556 5560 5563 5565 5567 5569 5572 5575 5578 5580 5582 5583 5584 5584 5585 5586 5587 5588 5590 5591 5592 5592
5496 5490 5484 5479 5474 5469 5466 5464 5464 5465 5467 5472 5479 5486 5493 5501 5509 5517 5524 5529 5534 5538 5542 5547 5550 5553 5556 5559 5562 5566 5568 5571 5573 5575 5576 5577 5578 5579 5580 5581 5583 5584 5584 5585
5488 5482 5477 5472 5467 5462 5458 5455 5453 5453 5454 5457 5463 5469 5476 5485 5493 5501 5508 5514 5520 5524 5529 5534 5537 5541 5545 5548 5552 5556 5559 5562 5565 5567 5569 5570 5571 5573 5573 5575 5576 5577 5577 5578